Regional Weather Roundup
Issued by NWS

Home | Current Version | Previous Version | Graphics & Text | Print | Product List | Glossary On
Versions: 1 2 3 4 5 6 7 8 9 10 11 12 13 14 15 16 17 18 19 20 21 22 23 24 25 26 27 28 29 30 31 32 33 34 35 36 37 38 39 40 41 42 43 44 45 46 47 48 49 50
000
ASUS43 KFSD 050910
RWRSD

WEATHER ROUNDUP FOR SOUTH DAKOTA
NATIONAL WEATHER SERVICE SIOUX FALLS SD
300 AM CST THU MAR 05 2015

NOTE: "FAIR" INDICATES FEW OR NO CLOUDS BELOW 12,000 FEET WITH NO
SIGNIFICANT WEATHER AND/OR OBSTRUCTIONS TO VISIBILITY.


SDZ001>005-009-010-012>017-051000-
NORTHWEST AND NORTH CENTRAL SOUTH DAKOTA

CITY           SKY/WX    TMP DP  RH WIND       PRES   REMARKS
BUFFALO          N/A      4  -4  69 S8        30.06F WCI  -9
FAITH            N/A     -1  -9  68 S15       30.22F WCI -21
MOBRIDGE       CLEAR     -1  -8  72 SE10      30.30F WCI -17
$$

SDZ012>016-024>037-041>051-057-063-072>074-051000-
SOUTHWEST AND SOUTH CENTRAL SOUTH DAKOTA

CITY           SKY/WX    TMP DP  RH WIND       PRES   REMARKS
RAPID CTY ARPT PTCLDY     4  -1  80 S5        30.19F WCI  -5
PIERRE         CLEAR     -5 -10  79 SE9       30.36F WCI -22
CUSTER         PTCLDY     5  -5  63 VRB3      30.04S
ELLSWORTH AFB  PTCLDY     6   0  74 S7        30.16F WCI  -5
PHILIP         PTCLDY    -5 -11  75 W6        30.31F WCI -18
PINE RIDGE     PTCLDY    -8 -14  74 CALM      30.23F
SPEARFISH      FAIR      16   0  48 MISG      30.11S
WINNER         FAIR       5  -5  63 SW9       30.35F WCI  -9
$$

SDZ004>011-016>023-039-040-051000-
NORTHEAST SOUTH DAKOTA

CITY           SKY/WX    TMP DP  RH WIND       PRES   REMARKS
ABERDEEN       CLEAR    -16 -21  78 SW6       30.42F WCI -31
WATERTOWN      PTCLDY   -15 -19  82 CALM      30.36F
SISSETON         N/A     -8 -14  74 W5        30.42F WCI -19
$$

SDZ017-020-022-023-036>040-048>070-051000-
SOUTHEAST SOUTH DAKOTA

CITY           SKY/WX    TMP DP  RH WIND       PRES   REMARKS
SIOUX FALLS    CLEAR     -8 -13  78 W3        30.43F
HURON          MOCLDY    -8 -14  74 SW5       30.44F WCI -19
CHAMBERLAIN    PTCLDY    -5 -10  80 E5        30.39F WCI -16
MITCHELL       CLEAR     -5  -9  83 CALM      30.46F
YANKTON        CLEAR     -6 -13  71 NW3       30.47F
$$

ABBREVIATIONS USED IN REMARKS
   TC - TEMPERATURE IN CELSIUS
  WCI - WIND CHILL INDEX
   HX - HEAT INDEX
  VSB - VISIBILITY



USA.gov is the U.S. government's official web portal to all federal, state and local government web resources and services.